Location: Chimay
(50.0486°N, 4.3171°E)
Time: 08:49:45
(UTC+00:00)

Cosmos 1666 Rocket - Pass Details

Date: 08 August 2020
Orbit: 605 x 632 km, 82.5° (Epoch: 20 September)

Event Time Altitude Azimuth Distance (km) Brightness Sun altitude
Exits shadow 20:21:27 - 174° (S) 2,371 6.1 -10.0°
Reaches altitude 10° 20:22:30 10° 171° (S) 1,950 5.7 -10.1°
Maximum altitude 20:26:42 53° 95° (E) 749 3.7 -10.7°
Drops below altitude 10° 20:30:56 10° 18° (NNE) 1,971 6.5 -11.2°
Sets 20:33:12 0° 14° (NNE) 2,883 7.4 -11.4°
